timestamp,waterbody_station,lease,latitude,longitude,deployment_start_date,deployment_end_date,sensor,depth,mooring,Temperature_degrees Celsius,Dissolved Oxygen_percent saturation,Salinity_practical salinity units
2019-04-28T00:00:00,Lobster Bay-Old Point Channel,,43.721,-65.8457,2018-03-20,2019-06-15,HOBO-20291436,5.0,float,6.914,,
2019-04-28T00:15:00,Lobster Bay-Old Point Channel,,43.721,-65.8457,2018-03-20,2019-06-15,HOBO-20291436,5.0,float,6.99,,
2019-04-28T00:30:00,Lobster Bay-Old Point Channel,,43.721,-65.8457,2018-03-20,2019-06-15,HOBO-20291436,5.0,float,7.041,,
2019-04-28T00:45:00,Lobster Bay-Old Point Channel,,43.721,-65.8457,2018-03-20,2019-06-15,HOBO-20291436,5.0,float,7.041,,
2019-04-28T01:00:00,Lobster Bay-Old Point Channel,,43.721,-65.8457,2018-03-20,2019-06-15,HOBO-20291436,5.0,float,7.041,,
2019-04-28T01:15:00,Lobster Bay-Old Point Channel,,43.721,-65.8457,2018-03-20,2019-06-15,HOBO-20291436,5.0,float,7.041,,
2019-04-28T01:30:00,Lobster Bay-Old Point Channel,,43.721,-65.8457,2018-03-20,2019-06-15,HOBO-20291436,5.0,float,7.066,,
2019-04-28T01:45:00,Lobster Bay-Old Point Channel,,43.721,-65.8457,2018-03-20,2019-06-15,HOBO-20291436,5.0,float,7.066,,
2019-04-28T02:00:00,Lobster Bay-Old Point Channel,,43.721,-65.8457,2018-03-20,2019-06-15,HOBO-20291436,5.0,float,7.066,,
2019-04-28T02:15:00,Lobster Bay-Old Point Channel,,43.721,-65.8457,2018-03-20,2019-06-15,HOBO-20291436,5.0,float,7.091,,
2019-04-28T02:30:00,Lobster Bay-Old Point Channel,,43.721,-65.8457,2018-03-20,2019-06-15,HOBO-20291436,5.0,float,7.091,,
2019-04-28T02:45:00,Lobster Bay-Old Point Channel,,43.721,-65.8457,2018-03-20,2019-06-15,HOBO-20291436,5.0,float,7.066,,
2019-04-28T03:00:00,Lobster Bay-Old Point Channel,,43.721,-65.8457,2018-03-20,2019-06-15,HOBO-20291436,5.0,float,7.066,,
2019-04-28T03:15:00,Lobster Bay-Old Point Channel,,43.721,-65.8457,2018-03-20,2019-06-15,HOBO-20291436,5.0,float,6.94,,
2019-04-28T03:30:00,Lobster Bay-Old Point Channel,,43.721,-65.8457,2018-03-20,2019-06-15,HOBO-20291436,5.0,float,6.914,,
2019-04-28T03:45:00,Lobster Bay-Old Point Channel,,43.721,-65.8457,2018-03-20,2019-06-15,HOBO-20291436,5.0,float,6.889,,
2019-04-28T04:00:00,Lobster Bay-Old Point Channel,,43.721,-65.8457,2018-03-20,2019-06-15,HOBO-20291436,5.0,float,6.914,,
2019-04-28T04:15:00,Lobster Bay-Old Point Channel,,43.721,-65.8457,2018-03-20,2019-06-15,HOBO-20291436,5.0,float,6.914,,
2019-04-28T04:30:00,Lobster Bay-Old Point Channel,,43.721,-65.8457,2018-03-20,2019-06-15,HOBO-20291436,5.0,float,6.914,,
2019-04-28T04:45:00,Lobster Bay-Old Point Channel,,43.721,-65.8457,2018-03-20,2019-06-15,HOBO-20291436,5.0,float,6.914,,
2019-04-28T05:00:00,Lobster Bay-Old Point Channel,,43.721,-65.8457,2018-03-20,2019-06-15,HOBO-20291436,5.0,float,6.914,,
2019-04-28T05:15:00,Lobster Bay-Old Point Channel,,43.721,-65.8457,2018-03-20,2019-06-15,HOBO-20291436,5.0,float,6.889,,
2019-04-28T05:30:00,Lobster Bay-Old Point Channel,,43.721,-65.8457,2018-03-20,2019-06-15,HOBO-20291436,5.0,float,6.864,,
2019-04-28T05:45:00,Lobster Bay-Old Point Channel,,43.721,-65.8457,2018-03-20,2019-06-15,HOBO-20291436,5.0,float,6.864,,
2019-04-28T06:00:00,Lobster Bay-Old Point Channel,,43.721,-65.8457,2018-03-20,2019-06-15,HOBO-20291436,5.0,float,6.864,,
2019-04-28T06:15:00,Lobster Bay-Old Point Channel,,43.721,-65.8457,2018-03-20,2019-06-15,HOBO-20291436,5.0,float,6.839,,
2019-04-28T06:30:00,Lobster Bay-Old Point Channel,,43.721,-65.8457,2018-03-20,2019-06-15,HOBO-20291436,5.0,float,6.839,,
2019-04-28T06:45:00,Lobster Bay-Old Point Channel,,43.721,-65.8457,2018-03-20,2019-06-15,HOBO-20291436,5.0,float,6.839,,
2019-04-28T07:00:00,Lobster Bay-Old Point Channel,,43.721,-65.8457,2018-03-20,2019-06-15,HOBO-20291436,5.0,float,6.839,,
2019-04-28T07:15:00,Lobster Bay-Old Point Channel,,43.721,-65.8457,2018-03-20,2019-06-15,HOBO-20291436,5.0,float,6.712,,
2019-04-28T07:30:00,Lobster Bay-Old Point Channel,,43.721,-65.8457,2018-03-20,2019-06-15,HOBO-20291436,5.0,float,6.661,,
2019-04-28T07:45:00,Lobster Bay-Old Point Channel,,43.721,-65.8457,2018-03-20,2019-06-15,HOBO-20291436,5.0,float,6.636,,
2019-04-28T08:00:00,Lobster Bay-Old Point Channel,,43.721,-65.8457,2018-03-20,2019-06-15,HOBO-20291436,5.0,float,6.585,,
2019-04-28T08:15:00,Lobster Bay-Old Point Channel,,43.721,-65.8457,2018-03-20,2019-06-15,HOBO-20291436,5.0,float,6.585,,
2019-04-28T08:30:00,Lobster Bay-Old Point Channel,,43.721,-65.8457,2018-03-20,2019-06-15,HOBO-20291436,5.0,float,6.611,,
2019-04-28T08:45:00,Lobster Bay-Old Point Channel,,43.721,-65.8457,2018-03-20,2019-06-15,HOBO-20291436,5.0,float,6.611,,
2019-04-28T09:00:00,Lobster Bay-Old Point Channel,,43.721,-65.8457,2018-03-20,2019-06-15,HOBO-20291436,5.0,float,6.56,,
2019-04-28T09:15:00,Lobster Bay-Old Point Channel,,43.721,-65.8457,2018-03-20,2019-06-15,HOBO-20291436,5.0,float,6.535,,
2019-04-28T09:30:00,Lobster Bay-Old Point Channel,,43.721,-65.8457,2018-03-20,2019-06-15,HOBO-20291436,5.0,float,6.56,,
2019-04-28T09:45:00,Lobster Bay-Old Point Channel,,43.721,-65.8457,2018-03-20,2019-06-15,HOBO-20291436,5.0,float,6.56,,
2019-04-28T10:00:00,Lobster Bay-Old Point Channel,,43.721,-65.8457,2018-03-20,2019-06-15,HOBO-20291436,5.0,float,6.661,,
2019-04-28T10:15:00,Lobster Bay-Old Point Channel,,43.721,-65.8457,2018-03-20,2019-06-15,HOBO-20291436,5.0,float,6.712,,
2019-04-28T10:30:00,Lobster Bay-Old Point Channel,,43.721,-65.8457,2018-03-20,2019-06-15,HOBO-20291436,5.0,float,6.712,,
2019-04-28T10:45:00,Lobster Bay-Old Point Channel,,43.721,-65.8457,2018-03-20,2019-06-15,HOBO-20291436,5.0,float,6.813,,
2019-04-28T11:00:00,Lobster Bay-Old Point Channel,,43.721,-65.8457,2018-03-20,2019-06-15,HOBO-20291436,5.0,float,6.889,,
2019-04-28T11:15:00,Lobster Bay-Old Point Channel,,43.721,-65.8457,2018-03-20,2019-06-15,HOBO-20291436,5.0,float,6.94,,
2019-04-28T11:30:00,Lobster Bay-Old Point Channel,,43.721,-65.8457,2018-03-20,2019-06-15,HOBO-20291436,5.0,float,6.94,,
2019-04-28T11:45:00,Lobster Bay-Old Point Channel,,43.721,-65.8457,2018-03-20,2019-06-15,HOBO-20291436,5.0,float,6.99,,
2019-04-28T12:00:00,Lobster Bay-Old Point Channel,,43.721,-65.8457,2018-03-20,2019-06-15,HOBO-20291436,5.0,float,7.041,,
2019-04-28T12:15:00,Lobster Bay-Old Point Channel,,43.721,-65.8457,2018-03-20,2019-06-15,HOBO-20291436,5.0,float,7.041,,
2019-04-28T12:30:00,Lobster Bay-Old Point Channel,,43.721,-65.8457,2018-03-20,2019-06-15,HOBO-20291436,5.0,float,7.041,,
2019-04-28T12:45:00,Lobster Bay-Old Point Channel,,43.721,-65.8457,2018-03-20,2019-06-15,HOBO-20291436,5.0,float,7.116,,
2019-04-28T13:00:00,Lobster Bay-Old Point Channel,,43.721,-65.8457,2018-03-20,2019-06-15,HOBO-20291436,5.0,float,7.142,,
2019-04-28T13:15:00,Lobster Bay-Old Point Channel,,43.721,-65.8457,2018-03-20,2019-06-15,HOBO-20291436,5.0,float,7.167,,
2019-04-28T13:30:00,Lobster Bay-Old Point Channel,,43.721,-65.8457,2018-03-20,2019-06-15,HOBO-20291436,5.0,float,7.192,,
2019-04-28T13:45:00,Lobster Bay-Old Point Channel,,43.721,-65.8457,2018-03-20,2019-06-15,HOBO-20291436,5.0,float,7.217,,
2019-04-28T14:00:00,Lobster Bay-Old Point Channel,,43.721,-65.8457,2018-03-20,2019-06-15,HOBO-20291436,5.0,float,7.192,,
2019-04-28T14:15:00,Lobster Bay-Old Point Channel,,43.721,-65.8457,2018-03-20,2019-06-15,HOBO-20291436,5.0,float,7.217,,
2019-04-28T14:30:00,Lobster Bay-Old Point Channel,,43.721,-65.8457,2018-03-20,2019-06-15,HOBO-20291436,5.0,float,7.192,,
2019-04-28T14:45:00,Lobster Bay-Old Point Channel,,43.721,-65.8457,2018-03-20,2019-06-15,HOBO-20291436,5.0,float,7.192,,
2019-04-28T15:00:00,Lobster Bay-Old Point Channel,,43.721,-65.8457,2018-03-20,2019-06-15,HOBO-20291436,5.0,float,7.192,,
2019-04-28T15:15:00,Lobster Bay-Old Point Channel,,43.721,-65.8457,2018-03-20,2019-06-15,HOBO-20291436,5.0,float,7.041,,
2019-04-28T15:30:00,Lobster Bay-Old Point Channel,,43.721,-65.8457,2018-03-20,2019-06-15,HOBO-20291436,5.0,float,6.99,,
2019-04-28T15:45:00,Lobster Bay-Old Point Channel,,43.721,-65.8457,2018-03-20,2019-06-15,HOBO-20291436,5.0,float,7.015,,
2019-04-28T16:00:00,Lobster Bay-Old Point Channel,,43.721,-65.8457,2018-03-20,2019-06-15,HOBO-20291436,5.0,float,6.813,,
2019-04-28T16:15:00,Lobster Bay-Old Point Channel,,43.721,-65.8457,2018-03-20,2019-06-15,HOBO-20291436,5.0,float,6.737,,
2019-04-28T16:30:00,Lobster Bay-Old Point Channel,,43.721,-65.8457,2018-03-20,2019-06-15,HOBO-20291436,5.0,float,6.914,,
2019-04-28T16:45:00,Lobster Bay-Old Point Channel,,43.721,-65.8457,2018-03-20,2019-06-15,HOBO-20291436,5.0,float,6.965,,
2019-04-28T17:00:00,Lobster Bay-Old Point Channel,,43.721,-65.8457,2018-03-20,2019-06-15,HOBO-20291436,5.0,float,6.94,,
2019-04-28T17:15:00,Lobster Bay-Old Point Channel,,43.721,-65.8457,2018-03-20,2019-06-15,HOBO-20291436,5.0,float,7.041,,
2019-04-28T17:30:00,Lobster Bay-Old Point Channel,,43.721,-65.8457,2018-03-20,2019-06-15,HOBO-20291436,5.0,float,7.015,,
2019-04-28T17:45:00,Lobster Bay-Old Point Channel,,43.721,-65.8457,2018-03-20,2019-06-15,HOBO-20291436,5.0,float,7.091,,
2019-04-28T18:00:00,Lobster Bay-Old Point Channel,,43.721,-65.8457,2018-03-20,2019-06-15,HOBO-20291436,5.0,float,7.142,,
2019-04-28T18:15:00,Lobster Bay-Old Point Channel,,43.721,-65.8457,2018-03-20,2019-06-15,HOBO-20291436,5.0,float,7.116,,
2019-04-28T18:30:00,Lobster Bay-Old Point Channel,,43.721,-65.8457,2018-03-20,2019-06-15,HOBO-20291436,5.0,float,7.167,,
2019-04-28T18:45:00,Lobster Bay-Old Point Channel,,43.721,-65.8457,2018-03-20,2019-06-15,HOBO-20291436,5.0,float,7.015,,
2019-04-28T19:00:00,Lobster Bay-Old Point Channel,,43.721,-65.8457,2018-03-20,2019-06-15,HOBO-20291436,5.0,float,7.192,,
2019-04-28T19:15:00,Lobster Bay-Old Point Channel,,43.721,-65.8457,2018-03-20,2019-06-15,HOBO-20291436,5.0,float,7.192,,
2019-04-28T19:30:00,Lobster Bay-Old Point Channel,,43.721,-65.8457,2018-03-20,2019-06-15,HOBO-20291436,5.0,float,7.268,,
2019-04-28T19:45:00,Lobster Bay-Old Point Channel,,43.721,-65.8457,2018-03-20,2019-06-15,HOBO-20291436,5.0,float,7.242,,
2019-04-28T20:00:00,Lobster Bay-Old Point Channel,,43.721,-65.8457,2018-03-20,2019-06-15,HOBO-20291436,5.0,float,7.368,,
2019-04-28T20:15:00,Lobster Bay-Old Point Channel,,43.721,-65.8457,2018-03-20,2019-06-15,HOBO-20291436,5.0,float,7.444,,
2019-04-28T20:30:00,Lobster Bay-Old Point Channel,,43.721,-65.8457,2018-03-20,2019-06-15,HOBO-20291436,5.0,float,7.544,,
2019-04-28T20:45:00,Lobster Bay-Old Point Channel,,43.721,-65.8457,2018-03-20,2019-06-15,HOBO-20291436,5.0,float,7.393,,
2019-04-28T21:00:00,Lobster Bay-Old Point Channel,,43.721,-65.8457,2018-03-20,2019-06-15,HOBO-20291436,5.0,float,7.419,,
2019-04-28T21:15:00,Lobster Bay-Old Point Channel,,43.721,-65.8457,2018-03-20,2019-06-15,HOBO-20291436,5.0,float,7.368,,
2019-04-28T21:30:00,Lobster Bay-Old Point Channel,,43.721,-65.8457,2018-03-20,2019-06-15,HOBO-20291436,5.0,float,7.343,,
2019-04-28T21:45:00,Lobster Bay-Old Point Channel,,43.721,-65.8457,2018-03-20,2019-06-15,HOBO-20291436,5.0,float,7.318,,
2019-04-28T22:00:00,Lobster Bay-Old Point Channel,,43.721,-65.8457,2018-03-20,2019-06-15,HOBO-20291436,5.0,float,7.268,,
2019-04-28T22:15:00,Lobster Bay-Old Point Channel,,43.721,-65.8457,2018-03-20,2019-06-15,HOBO-20291436,5.0,float,7.393,,
2019-04-28T22:30:00,Lobster Bay-Old Point Channel,,43.721,-65.8457,2018-03-20,2019-06-15,HOBO-20291436,5.0,float,7.469,,
2019-04-28T22:45:00,Lobster Bay-Old Point Channel,,43.721,-65.8457,2018-03-20,2019-06-15,HOBO-20291436,5.0,float,7.594,,
2019-04-28T23:00:00,Lobster Bay-Old Point Channel,,43.721,-65.8457,2018-03-20,2019-06-15,HOBO-20291436,5.0,float,7.318,,
2019-04-28T23:15:00,Lobster Bay-Old Point Channel,,43.721,-65.8457,2018-03-20,2019-06-15,HOBO-20291436,5.0,float,7.444,,
2019-04-28T23:30:00,Lobster Bay-Old Point Channel,,43.721,-65.8457,2018-03-20,2019-06-15,HOBO-20291436,5.0,float,7.695,,
2019-04-28T23:45:00,Lobster Bay-Old Point Channel,,43.721,-65.8457,2018-03-20,2019-06-15,HOBO-20291436,5.0,float,7.845,,
